Preview of NWS' New Version of Forecast
This preview is not operational and should not be used for support decisions.

Regional Weather Roundup (RWR)

Issued by National Weather Service (NWS)

                            
000
ASUS45 KBOI 231310
RWRID 

IDAHO REGIONAL WEATHER ROUNDUP
NATIONAL WEATHER SERVICE BOISE ID
700 AM MDT SAT MAR 23 2019

NOTE: "FAIR" INDICATES FEW OR NO CLOUDS BELOW 12000 FEET
WITH NO SIGNIFICANT WEATHER AND/OR OBSTRUCTIONS TO VISIBILITY

IDZ012-014-231400-
SOUTHWEST IDAHO

  
CITY           SKY/WX    TMP DP  RH WIND       PRES   REMARKS
BOISE          CLOUDY    41  37  86 SE7       30.05F                  
CALDWELL       PTCLDY    42  37  82 CALM      30.06S                  
MOUNTAIN HOME  CLOUDY    40  40 100 CALM      30.05F                  
$$

IDZ016-017-231400-
SOUTHCENTRAL IDAHO

  
CITY           SKY/WX    TMP DP  RH WIND       PRES   REMARKS
BURLEY         MOCLDY    40  30  67 SW5       30.07S                  
JEROME         PTCLDY    39  32  76 S7        30.07S WCI  34          
TWIN FALLS     PTCLDY    39  29  67 SW13      30.06F WCI  31          
$$

IDZ019>023-231400-
SOUTHEAST IDAHO

  
CITY           SKY/WX    TMP DP  RH WIND       PRES   REMARKS
IDAHO FALLS    CLOUDY    38  35  89 SW5       30.09R WCI  34          
POCATELLO      CLOUDY    41  35  79 SW12      30.09R                  
REXBURG        CLOUDY    38  35  89 CALM      30.07S                  
$$

IDZ006-010-011-018-031-032-231400-
CENTRAL IDAHO MOUNTAINS

  
CITY           SKY/WX    TMP DP  RH WIND       PRES   REMARKS
MCCALL         MOCLDY    32  29  88 CALM      30.04S                  
HAILEY         MOCLDY    32  30  93 NW6       30.08S WCI  26          
STANLEY          N/A     29  25  85 CALM      30.07R                  
SALMON         CLOUDY    35  31  85 S3        30.07S                  
CHALLIS        MOCLDY    35  32  88 CALM      30.06S                  
$$

IDZ002-004-006-007-026-231400-
NORTHERN IDAHO

  
CITY           SKY/WX    TMP DP  RH WIND       PRES   REMARKS
LEWISTON       MOCLDY    45  38  76 NE3       30.09R                  
LOWELL           N/A     38  36  92 CALM      30.14                   
COEUR D'ALENE  CLOUDY    37  34  89 S6        30.07R WCI  32          
MULLAN PASS    CLOUDY    32  28  85 NW3       30.03S                  
$$